| time (UTC) | temp C | wind direction | speed KPH | gust KPH | rain 1hr cm | rain 24hr cm | rain mn cm | humidity % | barometer mb |
| 20260509174543 | 17 | 45 | 3.2 | 8.0 | 0.00 | 0.00 | 0.00 | 65 | 1021.4 |
| 20260509173042 | 16 | 131 | 1.6 | 6.4 | 0.00 | 0.00 | 0.00 | 66 | 1021.4 |
| 20260509171556 | 16 | 0 | 0.0 | 6.4 | 0.00 | 0.00 | 0.00 | 70 | 1021.6 |
| 20260509170051 | 16 | 0 | 3.2 | 6.4 | 0.00 | 0.00 | 0.00 | 68 | 1021.5 |
| 20260509164553 | 15 | 37 | 1.6 | 8.0 | 0.00 | 0.00 | 0.00 | 73 | 1021.6 |
| 20260509163043 | 15 | 43 | 0.0 | 6.4 | 0.00 | 0.00 | 0.00 | 75 | 1021.8 |
| 20260509161541 | 15 | 94 | 1.6 | 6.4 | 0.00 | 0.00 | 0.00 | 76 | 1022.0 |
| 20260509160041 | 14 | 33 | 1.6 | 6.4 | 0.00 | 0.00 | 0.00 | 79 | 1022.3 |
| 20260509154546 | 13 | 289 | 1.6 | 8.0 | 0.00 | 0.00 | 0.00 | 78 | 1022.2 |
| 20260509153048 | 13 | 54 | 0.0 | 4.8 | 0.00 | 0.00 | 0.00 | 82 | 1022.3 |
| 20260509151549 | 12 | 65 | 0.0 | 3.2 | 0.00 | 0.00 | 0.00 | 83 | 1022.3 |
| 20260509150048 | 11 | 74 | 0.0 | 1.6 | 0.00 | 0.00 | 0.00 | 84 | 1022.4 |
| 20260509144542 | 10 | 109 | 0.0 | 3.2 | 0.00 | 0.00 | 0.00 | 90 | 1022.4 |
| 20260509143043 | 9 | 0 | 0.0 | 3.2 | 0.00 | 0.00 | 0.00 | 92 | 1022.4 |
| 20260509141541 | 8 | 63 | 0.0 | 3.2 | 0.00 | 0.00 | 0.00 | 95 | 1022.1 |
| 20260509140056 | 7 | 0 | 0.0 | 4.8 | 0.00 | 0.00 | 0.00 | 94 | 1022.0 |
| 20260509134547 | 7 | 0 | 0.0 | 3.2 | 0.00 | 0.00 | 0.00 | 94 | 1022.1 |
| 20260509133047 | 7 | 261 | 1.6 | 4.8 | 0.00 | 0.00 | 0.00 | 94 | 1022.2 |
| 20260509131546 | 7 | 312 | 0.0 | 4.8 | 0.00 | 0.00 | 0.00 | 94 | 1021.9 |
| 20260509130046 | 7 | 238 | 1.6 | 6.4 | 0.00 | 0.00 | 0.00 | 95 | 1022.0 |
| 20260509124542 | 6 | 264 | 1.6 | 4.8 | 0.00 | 0.00 | 0.00 | 94 | 1022.0 |
| 20260509123047 | 6 | 244 | 1.6 | 4.8 | 0.00 | 0.00 | 0.00 | 93 | 1022.1 |
| 20260509121550 | 7 | 268 | 1.6 | 4.8 | 0.00 | 0.00 | 0.00 | 94 | 1022.3 |
| 20260509120051 | 6 | 0 | 0.0 | 3.2 | 0.00 | 0.00 | 0.00 | 94 | 1022.4 |
| 20260509114547 | 7 | 257 | 1.6 | 4.8 | 0.00 | 0.00 | 0.00 | 94 | 1022.4 |
| 20260509113045 | 6 | 261 | 1.6 | 4.8 | 0.00 | 0.00 | 0.00 | 95 | 1022.6 |
| 20260509111551 | 6 | 248 | 0.0 | 4.8 | 0.00 | 0.00 | 0.00 | 94 | 1022.5 |
| 20260509110050 | 6 | 247 | 0.0 | 3.2 | 0.00 | 0.00 | 0.00 | 94 | 1022.7 |
| 20260509104545 | 7 | 247 | 1.6 | 3.2 | 0.00 | 0.00 | 0.00 | 93 | 1022.9 |
| 20260509103042 | 7 | 0 | 0.0 | 1.6 | 0.00 | 0.00 | 0.00 | 93 | 1023.0 |
| 20260509101551 | 7 | 0 | 1.6 | 4.8 | 0.00 | 0.00 | 0.00 | 92 | 1022.9 |
| 20260509100041 | 7 | 352 | 1.6 | 6.4 | 0.00 | 0.00 | 0.00 | 94 | 1022.9 |
| 20260509094549 | 7 | 0 | 0.0 | 3.2 | 0.00 | 0.00 | 0.00 | 94 | 1023.0 |
| 20260509093054 | 7 | 245 | 3.2 | 4.8 | 0.00 | 0.00 | 0.00 | 93 | 1023.0 |
| 20260509091543 | 7 | 275 | 1.6 | 3.2 | 0.00 | 0.00 | 0.00 | 93 | 1023.1 |
| 20260509090052 | 7 | 218 | 1.6 | 4.8 | 0.00 | 0.00 | 0.00 | 92 | 1023.3 |
| 20260509084550 | 8 | 0 | 0.0 | 1.6 | 0.00 | 0.00 | 0.00 | 93 | 1023.3 |
| 20260509083047 | 8 | 13 | 0.0 | 4.8 | 0.00 | 0.00 | 0.00 | 92 | 1023.4 |
| 20260509081549 | 8 | 308 | 1.6 | 4.8 | 0.00 | 0.00 | 0.00 | 92 | 1023.6 |
| 20260509080054 | 8 | 260 | 1.6 | 4.8 | 0.00 | 0.00 | 0.00 | 91 | 1023.7 |
| 20260509074543 | 8 | 248 | 3.2 | 6.4 | 0.00 | 0.00 | 0.00 | 91 | 1023.7 |
| 20260509073042 | 8 | 0 | 1.6 | 3.2 | 0.00 | 0.00 | 0.00 | 90 | 1023.8 |
| 20260509071552 | 9 | 234 | 1.6 | 3.2 | 0.00 | 0.00 | 0.00 | 88 | 1023.8 |
| 20260509070049 | 10 | 0 | 0.0 | 3.2 | 0.00 | 0.00 | 0.00 | 87 | 1023.8 |
| 20260509064546 | 10 | 294 | 0.0 | 4.8 | 0.00 | 0.00 | 0.00 | 87 | 1023.6 |
| 20260509063047 | 10 | 256 | 0.0 | 4.8 | 0.00 | 0.00 | 0.00 | 88 | 1023.7 |
| 20260509061545 | 10 | 296 | 1.6 | 6.4 | 0.00 | 0.00 | 0.00 | 88 | 1023.7 |
| 20260509060044 | 10 | 254 | 1.6 | 4.8 | 0.00 | 0.00 | 0.00 | 87 | 1023.6 |
| 20260509054542 | 11 | 0 | 0.0 | 0.0 | 0.00 | 0.00 | 0.00 | 84 | 1023.6 |
| 20260509053046 | 11 | 0 | 0.0 | 0.0 | 0.00 | 0.00 | 0.00 | 82 | 1023.5 |
| 20260509051557 | 12 | 0 | 0.0 | 3.2 | 0.00 | 0.00 | 0.00 | 80 | 1023.6 |
| 20260509050049 | 12 | 306 | 1.6 | 6.4 | 0.00 | 0.00 | 0.00 | 80 | 1023.4 |
| 20260509044545 | 12 | 293 | 0.0 | 8.0 | 0.00 | 0.00 | 0.00 | 80 | 1023.4 |
| 20260509043042 | 13 | 0 | 0.0 | 0.0 | 0.00 | 0.00 | 0.00 | 78 | 1023.4 |
| 20260509041541 | 13 | 0 | 0.0 | 4.8 | 0.00 | 0.00 | 0.00 | 76 | 1023.0 |
| 20260509040043 | 14 | 272 | 0.0 | 4.8 | 0.00 | 0.00 | 0.00 | 75 | 1022.8 |
| 20260509034550 | 15 | 283 | 1.6 | 4.8 | 0.00 | 0.00 | 0.00 | 73 | 1022.6 |
| 20260509033051 | 15 | 295 | 1.6 | 6.4 | 0.00 | 0.00 | 0.00 | 70 | 1022.6 |
| 20260509031546 | 16 | 0 | 1.6 | 6.4 | 0.00 | 0.00 | 0.00 | 70 | 1022.7 |
| 20260509030042 | 16 | 320 | 0.0 | 3.2 | 0.00 | 0.00 | 0.00 | 68 | 1022.7 |
| 20260509024542 | 16 | 0 | 0.0 | 4.8 | 0.00 | 0.00 | 0.00 | 67 | 1022.7 |
| 20260509023046 | 16 | 13 | 3.2 | 8.0 | 0.00 | 0.00 | 0.00 | 65 | 1022.4 |
| 20260509021544 | 16 | 22 | 3.2 | 6.4 | 0.00 | 0.00 | 0.00 | 65 | 1022.3 |
| 20260509020047 | 17 | 27 | 1.6 | 6.4 | 0.00 | 0.00 | 0.00 | 64 | 1022.5 |
| 20260509014547 | 16 | 333 | 1.6 | 8.0 | 0.00 | 0.00 | 0.00 | 65 | 1022.4 |
| 20260509013050 | 17 | 352 | 3.2 | 12.9 | 0.00 | 0.00 | 0.00 | 62 | 1022.4 |
| 20260509011546 | 17 | 5 | 1.6 | 6.4 | 0.00 | 0.00 | 0.00 | 62 | 1022.4 |
| 20260509010047 | 17 | 49 | 3.2 | 9.7 | 0.00 | 0.00 | 0.00 | 62 | 1022.6 |
| 20260509004547 | 17 | 327 | 4.8 | 9.7 | 0.00 | 0.00 | 0.00 | 57 | 1022.4 |
| 20260509003044 | 18 | 23 | 3.2 | 9.7 | 0.00 | 0.00 | 0.00 | 57 | 1022.5 |
| 20260509001542 | 18 | 32 | 4.8 | 8.0 | 0.00 | 0.00 | 0.00 | 57 | 1022.7 |
| 20260509000041 | 18 | 0 | 3.2 | 8.0 | 0.00 | 0.00 | 0.00 | 58 | 1022.7 |
| 20260508234548 | 18 | 5 | 3.2 | 8.0 | 0.00 | 0.00 | 0.00 | 61 | 1022.7 |
| 20260508233059 | 18 | 0 | 0.0 | 6.4 | 0.00 | 0.00 | 0.00 | 56 | 1022.7 |
| 20260508231546 | 18 | 0 | 1.6 | 11.3 | 0.00 | 0.00 | 0.00 | 58 | 1022.7 |
| 20260508230052 | 18 | 48 | 4.8 | 9.7 | 0.00 | 0.00 | 0.00 | 54 | 1022.6 |
| 20260508224600 | 19 | 318 | 4.8 | 12.9 | 0.00 | 0.00 | 0.00 | 54 | 1022.6 |
| 20260508223048 | 19 | 0 | 3.2 | 9.7 | 0.00 | 0.00 | 0.00 | 51 | 1022.5 |
| 20260508221551 | 18 | 348 | 4.8 | 9.7 | 0.00 | 0.00 | 0.00 | 54 | 1022.6 |
| 20260508220043 | 18 | 22 | 3.2 | 12.9 | 0.00 | 0.00 | 0.00 | 56 | 1022.6 |
| 20260508214541 | 18 | 16 | 4.8 | 9.7 | 0.00 | 0.00 | 0.00 | 55 | 1022.6 |
| 20260508213049 | 18 | 186 | 3.2 | 9.7 | 0.00 | 0.00 | 0.00 | 55 | 1022.7 |
| 20260508211543 | 17 | 0 | 1.6 | 8.0 | 0.00 | 0.00 | 0.00 | 57 | 1022.8 |
| 20260508210043 | 16 | 0 | 1.6 | 8.0 | 0.00 | 0.00 | 0.00 | 58 | 1022.8 |
| 20260508204550 | 16 | 38 | 3.2 | 9.7 | 0.00 | 0.00 | 0.00 | 59 | 1022.8 |
| 20260508203054 | 16 | 59 | 3.2 | 11.3 | 0.00 | 0.00 | 0.00 | 62 | 1022.8 |
| 20260508201544 | 16 | 329 | 1.6 | 14.5 | 0.00 | 0.00 | 0.00 | 59 | 1022.8 |
| 20260508200049 | 16 | 341 | 3.2 | 14.5 | 0.00 | 0.00 | 0.00 | 62 | 1023.1 |
| 20260508194552 | 15 | 254 | 6.4 | 14.5 | 0.00 | 0.00 | 0.00 | 60 | 1023.0 |
| 20260508193048 | 15 | 323 | 3.2 | 14.5 | 0.00 | 0.00 | 0.00 | 63 | 1023.0 |
| 20260508191552 | 15 | 340 | 3.2 | 14.5 | 0.00 | 0.00 | 0.00 | 64 | 1023.0 |
| 20260508190044 | 13 | 346 | 4.8 | 11.3 | 0.00 | 0.00 | 0.00 | 64 | 1022.9 |
| 20260508184547 | 13 | 5 | 3.2 | 17.7 | 0.00 | 0.00 | 0.00 | 64 | 1022.9 |
| 20260508183041 | 13 | 315 | 9.7 | 19.3 | 0.00 | 0.00 | 0.00 | 64 | 1023.0 |
| 20260508181548 | 13 | 17 | 6.4 | 16.1 | 0.00 | 0.00 | 0.00 | 65 | 1023.0 |
| 20260508180048 | 13 | 46 | 4.8 | 14.5 | 0.00 | 0.00 | 0.00 | 67 | 1022.9 |